Tracking 19817 objects as of 19-Aug-2019
HD Live streaming from Space Station
objects crossing your sky now

MINOTAUR 4 R/B

Track MINOTAUR 4 R/B now!
10-day predictions


NORAD ID: 37228
Int'l Code: 2010-062G
Perigee: 630.2 km
Apogee: 648.5 km
Inclination: 72.0 °
Period: 97.4 minutes
Semi major axis: 7010 km
RCS: Unknown
Launch date: November 20, 2010
Source: United States (US)
Launch site: Kodiak Island, Alaska (KODAK)

Note: This is a ROCKET BODY
aabbcc
Your satellite tracking list
Your tracking list is empty




NASA's NSSDC Master Catalog

Two Line Element Set (TLE):
1 37228U 10062G   19222.93924398 0.00000100  00000-0  13473-4 0    00
2 37228  71.9755 301.0529 0013066 152.8848 207.1151 14.79077238    05
Source of the keplerian elements: McCants